RH
32 58 75 76 79 72 55 42 37 38 43 46 46 44 46 50 54 60 66 71 75 80 82 84 85 86 85 84 84 83 84 83 83 83 83 84 84 84 83 82 82 81 80 78 75 72 69 68 65 64 65 65 72 81 84 87 85 78 80 85 88 87 85 81 74 65 60 57 50 43 39 36 34 32 31 30 28 29 37 50 54 55 76 99 104
29 55 82 91 97 101 94 81 74 70 61 51 44 41 39 39 44 51 57 63 70 75 78 80 84 86 85 85 85 86 86 86 86 87 87 87 86 84 83 83 83 82 80 77 75 72 69 67 65 65 66 66 73 83 87 91 91 87 84 83 84 83 81 79 72 65 62 59 52 46 43 40 37 35 34 32 30 29 36 57 65 50 52 75 92
28 27 44 70 93 105 104 99 98 99 92 82 76 74 67 54 48 46 47 51 56 60 65 71 77 81 83 85 87 88 89 88 88 89 89 87 85 83 82 83 84 83 80 78 75 72 69 67 65 66 68 73 82 90 94 96 95 92 87 79 77 76 74 72 69 66 64 62 56 51 48 43 40 38 37 35 32 29 31 52 78 74 54 51 70
46 38 23 37 72 97 104 103 103 104 104 99 96 101 99 87 72 61 55 54 54 55 59 64 71 77 81 84 86 88 89 88 87 87 85 82 80 80 81 83 84 82 79 77 76 73 70 66 64 68 71 79 91 96 99 101 94 88 81 72 67 64 60 59 63 66 65 64 62 58 54 48 44 41 39 38 35 33 28 33 61 85 80 60 53
55 58 26 19 47 67 75 81 81 80 79 73 73 83 91 91 86 78 72 67 63 62 61 63 67 72 76 80 84 86 86 86 84 82 79 77 78 80 83 85 84 81 78 77 77 73 69 65 64 69 72 79 91 94 98 100 92 82 74 64 59 55 52 53 60 65 66 70 70 64 60 56 50 45 42 41 38 35 32 28 35 60 87 88 67
37 42 29 41 69 78 73 66 61 58 55 48 49 54 56 61 69 75 78 72 66 63 61 63 65 67 70 74 78 79 81 82 80 79 78 79 82 84 86 86 84 82 81 79 77 71 66 63 62 66 69 74 83 89 95 97 90 82 74 66 62 57 56 59 63 67 70 76 78 72 66 62 56 49 44 43 41 36 33 30 27 35 62 92 94
23 27 50 80 94 99 100 91 86 86 80 77 81 76 66 59 50 51 57 56 54 55 55 58 61 62 65 68 70 72 74 75 76 77 80 83 85 85 84 83 82 82 82 80 74 68 64 62 61 62 63 67 78 87 93 94 87 81 77 74 70 64 64 67 70 76 80 83 84 78 73 69 62 54 48 45 43 39 33 30 27 27 38 70 101
20 23 64 101 101 97 102 100 100 101 97 100 105 100 95 87 69 54 49 43 41 43 45 48 51 53 56 59 62 66 67 69 72 75 78 79 78 79 79 78 79 79 78 75 71 67 64 64 65 65 67 73 80 87 91 90 81 74 72 72 71 68 69 72 76 85 90 89 87 82 76 71 64 56 50 48 46 41 35 31 27 26 28 49 89
24 21 45 85 103 101 98 98 99 101 101 102 104 101 97 90 78 68 55 44 40 40 38 38 41 42 44 48 53 56 59 62 65 68 69 68 68 71 72 74 75 73 71 70 69 68 65 69 73 73 79 82 82 86 89 85 76 70 68 69 70 71 73 79 85 94 98 94 90 85 77 70 63 56 50 48 47 43 38 32 28 27 26 33 67
27 24 29 63 99 102 97 99 98 99 101 100 100 96 88 79 72 69 67 59 52 45 38 35 37 38 38 40 42 45 48 51 53 55 56 58 61 64 66 69 69 67 65 66 68 68 70 76 79 83 89 86 83 85 86 81 72 67 69 72 76 77 80 86 91 96 99 97 93 87 78 69 61 54 48 45 43 43 40 33 27 27 28 27 45
32 28 30 61 98 103 99 101 98 97 101 99 91 79 75 79 73 67 67 61 50 40 34 33 35 36 37 38 39 39 40 41 43 44 46 49 53 57 59 61 61 61 62 64 66 67 72 77 80 89 93 87 85 84 82 80 71 67 73 78 82 84 85 88 89 91 92 91 90 86 79 72 64 56 50 43 39 40 39 35 28 25 28 28 31
36 33 37 62 93 102 100 103 100 100 102 92 76 62 61 70 70 63 60 56 46 36 33 33 33 34 35 36 37 38 38 38 39 40 41 44 47 49 51 53 55 56 58 60 62 64 70 75 80 90 92 85 84 82 81 80 72 71 78 78 78 82 83 83 81 81 83 83 83 81 78 73 66 61 55 46 39 38 39 35 30 26 27 31 31
31 32 38 52 71 80 84 91 92 91 88 72 59 56 56 60 63 58 58 61 54 44 39 35 33 34 34 34 35 36 38 39 40 40 40 42 43 45 46 49 50 52 53 55 58 62 67 72 79 87 88 83 81 81 80 78 74 77 77 71 69 71 72 73 70 69 71 74 75 73 72 70 66 63 59 50 41 38 39 35 30 27 26 29 36
28 32 40 48 52 49 50 57 58 56 55 49 47 52 54 58 62 59 57 60 59 64 67 56 42 37 35 34 35 36 38 40 41 41 42 42 43 44 45 47 48 48 49 51 55 58 61 68 74 77 79 80 81 82 81 79 78 77 73 67 65 64 64 64 64 64 64 65 66 65 65 64 62 63 59 52 45 40 40 37 32 29 28 27 30
31 30 33 38 39 37 40 49 57 62 65 66 66 65 60 54 54 57 60 62 69 86 99 90 66 45 38 38 37 38 39 39 41 42 42 43 43 44 46 47 48 46 46 48 50 53 57 65 71 72 74 79 83 84 84 83 81 76 72 70 69 67 66 65 64 65 62 60 60 59 59 57 57 60 59 53 49 44 41 38 33 29 29 28 25
42 45 48 55 64 69 75 82 90 94 94 95 94 93 90 77 62 55 53 59 71 81 92 101 91 63 44 42 40 40 41 40 41 42 43 44 44 46 49 48 47 45 44 45 47 51 57 64 68 69 74 79 83 85 85 84 80 75 73 71 71 69 64 60 59 59 57 56 56 54 54 53 54 58 58 54 53 49 42 39 36 30 29 29 25
74 84 85 91 98 97 99 100 99 101 100 100 100 97 99 98 90 77 63 57 61 61 66 83 92 76 56 48 44 43 43 42 43 42 43 45 45 47 49 47 46 44 45 47 49 53 58 61 64 69 77 81 83 84 85 82 76 71 70 69 70 68 58 51 51 51 50 49 50 50 50 50 53 58 56 53 56 55 47 40 37 32 30 32 27
94 100 98 100 101 97 97 88 84 95 101 101 100 98 98 98 99 100 92 77 65 58 57 61 65 63 56 51 48 47 46 45 45 44 44 45 46 47 47 46 46 47 49 50 52 56 60 63 68 74 80 82 83 86 86 80 72 69 68 68 71 67 58 53 50 48 49 48 47 47 47 48 53 59 55 52 56 58 53 44 38 35 29 32 30
95 98 100 101 99 99 101 92 88 98 102 100 101 101 101 97 96 102 104 98 89 78 67 59 56 54 53 52 52 51 50 48 47 46 46 46 45 46 46 47 50 53 55 56 58 62 65 68 75 81 83 82 83 88 87 77 71 71 70 71 74 69 62 56 51 49 50 50 49 47 46 48 55 61 55 51 54 57 57 49 41 38 30 31 32
99 102 100 99 97 94 99 101 101 102 100 101 102 100 101 101 98 100 101 102 103 93 74 61 57 55 55 54 52 51 51 50 50 48 47 47 47 49 52 56 61 63 64 64 65 67 69 72 78 85 87 82 81 88 89 78 72 73 73 75 76 69 62 57 51 49 50 50 50 47 46 47 55 62 58 52 54 55 56 53 45 40 33 29 32
99 101 96 95 97 93 96 101 102 101 99 101 102 99 101 102 100 100 100 100 102 98 84 72 62 55 53 54 53 52 52 52 52 52 50 50 52 55 60 64 66 66 65 63 64 68 73 76 81 88 89 82 82 91 92 82 73 71 71 74 76 71 65 60 55 52 51 50 51 49 46 46 51 61 61 56 56 55 55 54 48 42 36 30 30
97 101 95 94 99 97 98 100 98 100 102 102 102 100 99 99 99 100 100 100 100 99 94 85 72 57 49 52 54 53 54 54 54 55 55 54 53 55 57 58 58 58 58 57 63 73 79 81 85 92 91 86 87 93 91 82 73 69 69 72 76 76 71 67 63 58 54 52 54 53 50 46 47 55 59 56 57 60 58 56 51 44 39 33 29
97 99 96 93 97 98 97 100 100 101 103 101 100 101 100 99 100 100 101 100 97 98 96 88 78 65 52 49 49 50 53 54 55 57 58 57 56 55 55 55 54 54 54 55 63 75 81 84 89 94 95 92 93 92 86 78 72 70 73 74 74 72 68 65 62 57 53 52 54 57 56 50 46 47 52 53 56 62 63 61 55 46 41 35 30
101 99 98 95 96 99 100 102 101 101 102 100 96 99 102 101 102 101 99 99 97 99 99 91 85 80 68 56 50 48 50 52 55 57 58 59 60 59 58 56 55 54 55 56 63 72 77 81 84 87 89 88 86 83 77 75 75 76 78 77 71 64 58 56 55 52 51 51 52 58 59 56 51 46 45 47 51 59 64 64 58 50 45 37 31
105 99 98 99 99 102 102 100 100 101 102 100 97 99 101 100 103 101 95 96 97 97 93 85 83 88 85 76 68 61 56 54 55 58 60 61 61 61 60 58 57 55 54 56 61 67 71 73 75 77 78 77 75 75 75 75 76 74 75 75 68 61 55 54 54 52 52 53 55 58 59 58 56 51 46 44 46 54 60 62 59 54 50 41 32
100 103 100 101 99 99 99 98 102 104 104 102 99 100 101 99 102 101 95 97 98 90 83 84 91 97 96 92 88 82 75 66 59 58 62 63 62 63 62 61 60 58 57 57 58 62 65 67 70 72 74 75 75 76 77 74 70 67 67 67 63 59 57 56 57 56 56 56 56 59 59 56 54 54 51 46 43 47 53 57 58 56 55 46 34
88 101 105 101 100 101 100 98 101 102 103 101 97 99 101 98 96 99 98 99 97 87 80 86 96 99 99 100 98 95 90 80 68 60 60 62 62 63 63 62 62 61 61 62 63 66 69 71 74 77 79 80 78 77 75 69 66 65 64 63 60 58 56 55 56 57 56 57 56 58 58 55 52 51 52 50 45 44 46 50 55 57 58 51 37
76 90 98 98 100 102 102 99 100 100 100 97 94 98 103 98 93 96 100 99 99 95 90 89 92 95 97 100 100 100 97 91 83 74 69 67 64 62 62 63 67 70 72 75 77 78 78 78 81 82 83 81 78 75 72 67 65 67 66 64 61 58 55 55 56 55 55 55 54 55 55 53 50 47 48 50 48 45 44 45 52 57 59 54 40
75 79 87 96 101 100 100 101 100 98 99 98 97 101 103 98 94 96 100 100 100 101 100 96 96 96 99 101 102 103 101 99 98 92 84 77 70 65 64 66 72 79 82 86 87 86 85 83 81 80 80 80 77 74 71 69 70 71 69 65 61 58 57 56 56 56 54 53 50 49 49 48 47 45 45 48 48 46 44 44 51 56 58 57 44
86 82 83 93 102 101 99 100 100 101 102 100 98 100 101 99 98 99 102 102 101 101 101 100 100 101 102 104 104 103 102 102 103 98 89 82 76 72 70 69 72 75 77 81 84 84 84 83 80 78 78 78 76 74 73 74 76 75 71 67 62 59 56 54 54 54 53 51 48 46 44 42 43 42 44 47 48 48 45 43 50 56 58 59 48
94 89 84 88 98 101 101 101 101 101 102 100 99 100 101 102 102 102 102 101 100 100 100 100 102 102 104 106 103 100 99 99 99 95 89 84 81 78 74 71 70 71 75 82 84 82 82 81 80 79 77 76 74 75 77 79 79 76 71 67 62 58 55 53 53 52 51 49 46 45 44 42 42 42 44 48 49 50 48 44 48 55 59 61 52
98 95 93 95 96 93 94 100 103 102 102 103 103 102 103 104 104 102 101 100 100 101 100 101 102 102 103 104 101 99 99 99 97 92 87 84 83 80 77 74 75 78 82 87 87 84 82 81 79 77 76 76 77 80 81 80 77 72 67 63 60 57 55 52 52 50 48 46 45 47 46 43 43 43 44 48 50 52 51 46 45 51 59 62 56
94 96 103 108 105 96 90 92 97 99 100 102 104 106 107 106 104 101 100 100 100 101 100 101 102 101 101 102 102 104 105 104 99 94 92 88 85 83 82 79 80 84 86 86 85 82 79 76 76 76 78 80 80 80 78 74 69 65 62 60 58 56 54 52 51 49 47 47 46 46 46 44 43 43 43 47 49 51 52 49 45 48 55 61 57
90 95 104 108 106 102 95 90 88 90 93 96 101 106 106 103 101 101 101 100 101 102 101 102 102 101 101 102 104 104 103 101 101 101 98 92 87 85 83 78 76 77 80 80 78 77 75 75 75 76 77 76 74 71 68 65 63 60 58 57 54 52 51 50 50 49 48 49 47 44 44 44 43 43 43 45 47 49 51 50 47 47 52 59 59
85 89 98 103 101 98 97 95 91 90 90 91 96 101 104 103 102 103 104 103 102 102 101 102 103 101 101 101 100 98 96 99 102 102 97 92 88 85 78 72 69 68 69 71 72 73 74 74 74 73 71 69 66 64 62 60 59 58 56 54 51 50 51 49 48 48 47 47 44 43 43 44 44 44 44 44 45 46 50 51 48 46 48 56 61
78 79 84 92 96 95 93 92 89 86 85 84 86 90 92 92 93 96 99 98 98 99 98 97 97 96 95 95 95 95 96 98 98 95 94 93 89 81 75 73 74 75 77 76 74 73 72 71 71 70 68 67 66 64 63 61 60 57 55 55 54 53 52 49 46 44 43 43 42 42 43 44 44 44 44 45 45 44 48 51 50 48 48 54 61
69 70 73 78 85 89 88 84 80 79 78 76 77 79 81 81 80 80 79 79 82 84 83 82 83 84 85 89 92 95 96 96 95 96 97 94 86 78 77 80 82 82 80 76 72 70 67 66 67 68 68 68 67 65 63 61 59 58 57 57 56 53 50 47 45 43 42 42 40 40 41 42 42 43 43 45 46 46 47 50 50 49 49 52 60
66 68 69 70 74 78 79 78 76 75 75 75 77 77 78 77 73 69 69 71 71 71 72 73 74 76 80 86 91 95 99 101 101 101 99 91 81 76 76 77 76 73 71 69 66 63 62 63 66 68 68 67 65 63 62 61 60 59 57 55 52 49 48 46 45 44 42 40 39 37 37 38 38 39 40 41 44 46 47 47 48 49 49 51 57
68 69 68 68 69 70 71 71 69 67 67 68 71 72 73 74 69 66 68 70 70 67 66 67 69 73 80 88 93 99 103 104 102 98 92 83 74 69 68 68 69 68 67 65 62 61 64 68 70 71 70 67 66 65 65 64 62 59 55 51 48 46 45 44 42 41 39 37 35 34 32 32 32 33 35 36 39 43 44 45 47 48 49 50 54
70 72 72 71 69 67 66 64 63 63 62 63 65 67 71 74 74 73 74 77 80 75 65 63 69 75 81 87 93 98 100 97 93 88 81 73 66 63 65 67 69 67 64 62 61 63 69 73 74 74 72 71 71 69 66 63 59 54 50 48 45 42 40 38 35 33 31 29 27 27 26 25 25 26 29 31 34 37 40 42 45 47 48 49 50
76 76 75 72 69 67 66 65 66 66 63 63 66 69 74 78 78 79 81 83 87 83 75 75 80 80 81 85 88 91 91 86 80 75 70 65 63 65 68 70 69 66 65 66 69 72 75 78 79 78 77 75 72 67 62 57 52 49 45 42 39 35 32 29 26 24 24 23 22 22 23 23 23 23 24 26 29 33 35 37 41 45 47 49 50
79 77 74 72 71 71 69 69 71 69 67 70 74 75 78 79 79 80 81 82 86 91 94 98 100 96 94 92 87 83 80 75 71 69 67 67 69 72 74 73 72 72 74 77 80 83 85 85 83 80 76 72 66 61 56 52 47 43 39 34 31 28 25 24 23 22 22 23 22 22 22 23 24 24 23 24 26 29 31 33 37 42 45 48 50
75 75 75 75 74 73 72 73 74 74 74 76 77 77 78 80 82 85 87 88 95 104 109 110 110 107 99 89 81 77 76 76 76 76 77 79 82 83 81 78 78 80 82 86 90 91 90 86 82 77 71 65 61 56 50 45 41 36 33 29 27 25 25 24 24 23 22 23 23 23 22 21 21 22 24 26 27 27 28 30 33 39 44 47 50
75 75 75 75 73 72 74 76 77 78 76 75 80 90 93 91 91 93 96 98 103 108 110 109 107 101 92 86 86 88 91 92 93 91 92 93 91 87 84 83 85 88 92 96 97 93 88 82 75 70 65 59 54 48 43 39 34 30 27 26 26 27 28 28 26 24 23 22 22 22 23 22 22 23 24 24 25 25 26 29 32 36 42 47 49
75 75 74 73 74 75 77 78 77 78 78 80 90 102 104 99 97 98 99 101 102 102 103 102 100 96 94 95 98 100 101 101 101 100 99 96 92 88 88 91 95 98 99 98 94 88 81 75 69 63 57 51 45 41 38 34 31 29 29 29 29 28 27 24 22 20 19 18 18 18 19 19 20 23 24 24 25 26 26 28 30 34 39 45 49
76 77 76 76 77 76 77 77 78 82 87 92 99 105 104 101 100 100 101 101 101 101 101 101 100 99 100 100 101 103 103 102 101 100 99 97 94 92 93 97 100 101 98 93 88 82 75 69 62 55 48 44 41 38 35 34 35 37 37 33 28 24 21 19 18 17 16 16 15 15 16 16 16 18 20 22 24 27 28 27 28 30 34 40 46
82 82 81 81 80 80 81 84 88 92 97 100 104 107 108 105 102 101 102 101 101 101 100 100 100 100 100 100 101 104 105 102 101 101 100 97 94 93 94 99 100 99 94 88 82 75 67 59 52 47 44 42 39 37 39 43 44 41 34 28 24 21 19 18 17 16 15 14 14 13 13 14 15 15 16 17 19 22 25 28 29 30 31 33 39
86 86 85 85 87 89 90 91 93 96 101 105 108 109 111 111 110 108 107 108 107 105 104 105 104 101 101 103 103 103 103 103 102 100 96 93 93 96 100 102 99 94 87 79 71 63 55 49 46 44 42 40 41 45 48 47 41 33 27 23 21 19 18 16 15 15 15 13 13 13 12 12 13 14 14 15 17 17 20 24 28 32 33 32 33
92 92 92 94 97 95 92 90 92 97 102 107 109 108 108 111 114 113 112 112 111 107 106 107 106 102 102 105 105 102 101 100 97 93 92 95 100 105 104 99 91 84 75 67 59 53 49 47 46 44 43 47 52 53 48 39 32 28 25 23 20 18 17 16 16 15 14 14 13 13 12 12 12 13 13 14 15 16 17 18 22 26 31 34 35
101 100 100 101 98 91 86 86 89 94 100 105 108 109 108 109 111 110 108 106 105 104 104 105 105 105 104 104 104 101 98 95 94 96 101 106 106 103 96 87 78 70 62 56 52 50 49 47 45 47 53 58 56 48 39 33 30 28 26 24 23 21 19 18 18 16 15 15 14 13 13 13 12 13 13 13 14 15 15 16 18 20 23 28 34
103 102 99 94 86 81 80 83 86 90 94 97 99 102 104 105 107 109 109 109 108 108 108 107 105 104 102 100 98 97 97 98 101 105 107 104 98 90 81 72 65 59 55 53 52 50 48 47 51 58 61 56 47 39 34 32 30 28 28 28 26 25 22 21 20 19 17 15 15 14 14 14 13 13 13 14 14 14 15 15 16 18 20 21 26
Wind_Speed
42 42 41 43 51 57 56 53 52 52 51 50 50 50 51 51 52 52 52 52 51 51 51 51 51 51 52 52 52 52 52 52 52 52 52 52 51 50 50 49 48 48 47 46 45 45 44 44 43 42 41 40 39 39 39 38 37 36 35 34 34 34 35 36 36 37 37 37 36 35 34 32 31 30 29 28 29 29 30 29 27 27 28 28 28
44 45 43 39 43 53 55 52 52 52 53 53 52 52 52 52 52 52 52 52 52 52 52 52 52 53 53 53 54 54 54 54 53 53 53 52 52 51 50 50 49 48 47 47 46 46 45 44 43 42 41 40 39 39 39 38 37 36 36 36 36 36 36 37 37 37 37 36 36 35 33 31 30 30 29 28 28 28 28 30 30 27 25 26 27
42 47 49 46 43 46 46 45 45 46 47 49 50 51 51 52 52 53 53 53 54 54 54 54 54 54 54 54 55 55 55 55 54 54 53 53 52 52 51 50 49 48 48 48 47 47 46 45 43 42 41 40 39 38 38 38 38 38 38 38 38 37 37 37 37 37 37 36 35 35 33 31 30 29 29 29 28 28 28 29 32 32 27 25 26
42 47 48 50 51 50 45 41 41 42 44 45 45 47 49 50 51 52 53 54 54 55 55 55 55 55 55 55 55 55 55 55 55 55 54 53 53 52 51 51 50 50 49 49 48 47 46 45 43 42 40 39 38 38 38 38 38 38 39 38 38 38 38 37 37 37 37 36 35 34 34 32 31 30 29 29 29 29 29 29 31 35 34 30 28
47 48 44 45 50 54 52 48 48 49 49 49 48 48 48 49 50 51 53 53 54 55 55 56 56 56 56 56 56 56 56 56 56 56 55 54 53 53 52 51 51 51 51 50 49 48 46 45 43 42 41 40 39 38 38 38 38 39 39 38 38 38 38 38 37 37 36 35 34 34 34 33 32 31 30 30 29 30 30 30 30 33 37 38 35
42 42 39 38 40 48 53 52 51 51 50 50 49 48 48 49 50 51 52 53 54 55 56 56 57 57 57 57 57 57 57 57 57 57 56 55 54 53 53 52 52 52 51 50 49 48 47 45 44 43 43 42 41 39 38 38 38 38 39 39 39 39 39 39 37 36 36 35 34 35 35 35 34 34 32 31 29 30 31 32 32 32 35 39 40
38 38 38 37 35 41 45 46 46 46 47 48 47 47 47 47 48 49 50 52 53 54 55 56 56 57 58 58 58 59 59 59 58 58 57 56 55 55 54 53 53 52 52 51 50 49 47 46 45 44 44 43 42 40 39 39 39 39 40 40 40 39 39 39 38 36 35 35 34 35 36 36 36 35 34 33 31 30 31 31 33 33 34 37 40
38 40 42 40 34 31 31 32 34 35 38 40 42 42 43 43 44 45 47 48 50 52 53 55 56 57 57 58 59 59 59 59 59 58 58 57 56 56 55 54 54 53 52 52 51 49 48 46 45 45 44 43 42 41 40 41 41 41 41 41 41 40 40 39 38 36 35 35 36 36 37 38 38 37 35 34 33 32 32 31 32 33 34 37 39
40 42 45 44 38 31 26 27 28 28 29 31 33 35 37 39 41 42 44 45 47 48 50 52 53 55 56 57 59 59 59 59 59 59 59 58 57 57 56 55 55 54 53 52 51 49 47 46 45 45 44 43 42 42 42 42 43 43 43 42 41 41 40 39 38 37 36 37 38 39 40 41 40 38 36 34 33 33 33 33 32 32 34 37 38
41 43 45 44 41 35 30 28 28 28 29 31 34 36 37 38 40 41 43 45 46 47 48 49 50 51 53 55 56 57 58 59 59 59 58 58 58 57 57 56 56 55 54 52 51 49 47 45 45 45 45 44 44 43 43 43 44 44 43 43 42 41 40 40 39 38 38 39 40 42 43 43 43 40 37 35 32 31 33 34 33 32 33 36 38
42 44 45 44 43 41 36 32 31 33 34 37 39 40 40 40 41 41 43 45 47 48 48 49 49 50 51 52 53 54 55 56 56 57 57 57 57 57 56 56 56 55 53 52 50 48 46 46 46 46 46 46 45 45 45 45 45 45 44 43 42 42 42 42 41 41 41 42 42 43 44 45 44 43 40 37 33 31 31 33 34 33 33 35 38
41 43 44 45 44 43 41 37 36 38 40 41 42 43 42 41 41 42 42 44 45 47 48 49 50 50 50 50 51 51 52 52 53 54 54 55 55 55 55 55 54 53 52 51 50 48 47 47 47 47 47 48 47 47 47 47 47 46 45 44 44 43 43 44 44 44 44 44 45 45 46 45 45 43 41 39 35 32 31 31 33 33 32 35 37
41 41 43 45 43 41 42 41 40 41 43 44 45 45 44 42 42 42 43 44 45 46 47 49 50 50 50 50 50 50 50 51 51 51 52 52 53 53 53 53 52 52 51 50 49 48 47 48 48 48 49 49 49 49 49 49 48 47 46 45 45 44 45 45 46 46 46 46 47 46 46 46 44 42 41 39 37 34 32 31 32 32 32 34 36
39 39 40 42 42 40 40 40 41 43 45 46 46 46 45 44 43 42 43 44 45 46 47 48 49 50 50 50 50 50 50 50 50 51 51 51 52 52 52 52 51 51 50 50 49 49 48 48 48 49 49 50 50 50 50 49 48 47 46 45 44 44 45 46 46 46 46 46 46 46 45 45 43 42 40 39 37 35 33 31 31 32 32 33 36
35 36 36 37 38 38 37 37 39 40 42 44 44 44 45 44 44 43 43 44 45 46 47 47 48 48 49 49 49 50 50 50 50 50 51 51 51 51 51 51 51 51 50 50 49 49 48 48 48 48 49 49 49 49 49 48 47 46 45 44 44 44 44 45 45 45 45 45 45 44 44 44 42 41 40 39 37 36 35 33 31 31 32 32 35
31 30 29 29 30 31 32 34 35 36 39 42 41 41 43 43 43 44 44 45 46 47 47 48 48 47 47 47 48 49 49 50 50 50 50 51 51 51 51 52 52 51 51 50 49 49 48 48 48 48 48 48 48 48 47 46 46 46 45 45 44 44 44 44 44 44 44 44 44 44 44 43 42 40 39 38 38 36 35 34 33 32 32 32 33
28 24 23 25 28 30 33 35 36 36 40 42 41 41 42 42 44 45 44 45 47 48 47 47 47 47 46 47 48 48 49 49 49 49 50 50 51 51 51 52 52 51 51 50 50 49 49 48 48 47 47 47 47 46 45 45 45 46 46 45 45 45 44 44 43 43 43 44 44 45 44 44 43 41 40 38 37 37 36 35 34 33 32 31 32
33 29 25 24 27 30 36 40 40 41 44 45 44 43 42 41 43 45 45 45 46 47 47 47 46 46 45 46 47 47 48 48 48 49 49 50 51 51 52 52 51 51 50 50 50 49 48 47 47 46 46 46 46 45 45 45 46 46 46 46 46 45 45 44 43 43 44 45 45 45 45 45 43 42 41 39 37 37 37 36 35 34 32 31 32
34 30 22 19 24 30 36 40 39 40 44 46 45 44 44 42 42 43 43 43 43 44 45 45 45 45 44 45 46 46 46 47 48 48 49 50 50 51 51 51 50 50 50 49 49 48 47 47 47 47 47 46 46 46 45 46 46 46 46 47 47 46 46 46 45 45 45 45 45 46 46 45 44 42 42 41 38 37 37 38 36 35 34 32 31
27 23 19 20 29 36 41 43 41 40 42 42 41 40 40 41 41 42 41 40 40 41 41 42 43 44 44 45 46 46 46 47 47 47 48 48 49 49 49 49 49 49 49 48 48 47 47 47 47 47 47 47 47 47 47 47 47 47 47 47 47 47 47 47 47 46 45 45 45 45 46 45 43 43 43 42 40 37 37 38 37 36 35 33 31
30 30 31 31 35 39 44 46 43 41 40 40 39 36 36 39 41 41 40 38 38 38 39 40 41 43 44 44 45 46 46 46 46 47 47 47 47 48 48 49 49 49 49 48 48 47 47 47 47 47 47 48 49 48 48 49 49 48 48 48 48 48 49 48 48 48 47 46 45 45 45 45 43 42 43 43 41 39 38 39 39 37 36 34 32
37 39 40 36 35 40 44 45 43 42 39 38 39 39 39 39 38 38 37 36 37 37 38 39 39 41 43 44 45 45 46 46 46 46 47 47 48 48 49 49 50 50 50 49 48 48 48 48 48 48 49 50 49 49 50 51 51 50 50 50 49 50 50 50 50 50 49 48 47 46 45 45 43 42 42 43 42 41 40 40 40 38 36 35 33
40 40 38 34 34 38 42 44 46 44 41 39 40 42 42 40 37 36 37 37 37 37 36 36 37 40 41 43 44 45 46 47 47 47 47 48 48 49 50 50 50 50 50 49 49 48 49 49 49 50 50 50 50 51 52 52 52 52 52 51 50 50 51 52 52 52 51 50 49 48 47 46 45 43 43 43 43 42 42 41 41 40 38 35 33
43 41 37 37 40 42 43 45 46 46 45 43 42 42 44 43 41 39 39 38 37 38 38 38 38 40 40 41 42 44 46 47 48 48 48 48 48 49 50 50 51 51 50 50 49 49 50 50 50 50 51 51 52 53 53 53 52 52 52 52 52 52 53 53 54 53 53 52 50 49 48 48 47 46 45 45 44 43 43 42 42 41 40 37 34
47 45 42 43 46 48 49 49 48 49 49 45 41 40 42 44 44 43 41 39 38 39 42 42 42 42 41 41 41 43 44 46 48 49 49 49 49 50 50 51 51 51 51 51 50 51 51 51 51 52 52 53 53 53 53 53 53 53 54 54 54 54 54 54 54 54 53 52 51 50 49 49 49 48 47 46 45 44 44 43 42 41 41 39 35
51 50 49 49 48 48 50 50 49 50 51 47 43 43 43 44 46 47 45 41 40 42 44 46 47 46 44 44 44 45 46 47 48 49 50 50 51 52 52 53 53 53 52 52 52 52 52 52 52 53 53 53 53 54 54 55 55 56 56 55 55 55 55 55 54 54 53 52 51 50 50 49 50 50 49 48 47 46 44 43 42 41 41 40 36
53 53 54 53 51 51 51 50 50 50 50 49 47 48 48 47 48 50 49 46 45 46 47 49 50 49 49 50 51 51 50 49 49 49 50 52 54 55 55 56 56 55 55 54 53 53 53 53 53 53 54 54 55 56 56 57 58 58 57 56 56 55 54 53 53 53 53 52 52 52 51 51 51 51 51 51 49 47 46 44 42 40 41 40 37
53 55 54 50 49 51 50 50 51 50 47 47 50 52 51 50 50 52 51 49 48 49 51 53 54 55 57 58 58 57 55 53 52 52 53 54 56 58 58 58 58 57 56 55 55 55 55 55 55 55 55 56 57 58 58 59 59 58 58 57 55 54 54 54 54 54 54 53 53 52 52 52 52 52 52 52 51 49 47 45 42 41 40 40 38
51 53 54 51 48 48 46 46 48 47 45 47 50 51 51 52 54 55 55 55 55 56 57 58 59 61 62 62 61 60 58 57 56 56 57 58 60 60 60 60 59 58 57 56 57 57 57 57 57 57 58 58 59 59 59 59 59 59 58 57 55 55 56 56 56 56 56 55 55 54 53 52 53 53 53 53 53 51 49 46 44 42 40 40 38
50 51 52 52 51 51 50 49 49 49 50 51 51 50 50 52 55 57 58 58 57 57 58 58 59 60 61 61 61 60 60 60 60 61 61 61 62 61 61 61 60 60 59 59 60 60 60 60 60 60 60 60 60 60 59 59 58 59 58 58 59 59 60 60 59 58 57 57 57 56 55 54 53 53 53 54 53 52 50 47 45 43 41 40 38
51 51 49 49 53 58 59 58 57 56 56 56 54 53 52 52 53 54 55 54 54 54 55 56 57 58 58 59 60 60 61 61 62 63 63 63 62 62 62 62 61 61 60 60 61 62 62 62 61 61 61 61 60 60 59 58 58 59 60 62 63 64 63 62 61 60 59 58 58 58 57 56 54 53 53 53 53 52 50 48 46 44 42 40 39
51 49 47 48 54 60 63 63 64 63 61 60 59 59 58 58 58 58 58 58 57 58 57 57 57 58 59 60 61 61 62 62 63 64 63 63 62 62 62 62 61 61 60 60 61 62 62 61 61 61 60 60 60 59 59 60 61 63 64 66 66 66 66 64 62 62 61 60 59 58 58 57 56 54 53 53 52 52 51 49 47 44 43 41 40
52 49 48 49 52 56 60 62 64 64 62 61 61 61 61 60 60 61 61 61 61 61 61 61 62 62 62 63 63 63 63 63 64 64 63 63 62 62 61 60 60 60 60 61 61 61 60 60 60 60 60 60 60 61 63 64 65 67 67 68 68 67 66 65 64 63 63 62 61 59 58 57 56 55 53 52 52 51 51 50 48 45 44 43 41
54 53 52 52 52 52 54 56 58 60 60 60 60 60 60 60 60 60 62 62 63 64 65 66 66 66 66 65 65 64 64 64 64 64 63 63 62 61 60 60 59 60 60 61 61 60 59 59 60 61 61 62 64 65 66 67 68 68 68 68 68 67 67 66 66 65 64 63 62 60 59 57 56 55 54 53 52 52 51 50 49 47 45 44 42
56 56 55 53 52 51 52 53 55 57 58 59 59 60 61 63 63 64 66 66 67 67 68 68 68 68 67 66 65 65 64 64 63 63 62 62 61 60 60 60 60 60 60 60 60 60 60 60 61 62 63 64 66 66 67 68 68 69 69 69 69 69 69 69 68 67 65 64 63 61 59 57 56 55 54 53 52 52 51 51 50 48 46 45 44
56 57 56 55 52 52 52 54 55 56 57 58 59 61 63 65 67 68 69 69 69 69 69 69 68 67 67 66 66 65 63 62 62 62 61 60 60 59 59 59 59 59 60 60 60 61 61 62 63 64 65 66 67 67 68 69 70 70 71 71 71 71 71 71 70 68 66 65 62 60 59 58 57 56 55 54 53 52 52 51 51 50 47 46 46
56 56 56 55 54 53 53 53 54 55 56 57 58 60 63 65 67 68 69 69 69 70 70 69 68 68 67 66 65 64 62 62 61 61 60 59 59 58 58 58 58 59 60 61 62 63 63 64 65 66 66 67 68 69 70 71 72 72 73 73 73 73 73 72 71 70 68 66 64 62 60 59 59 58 56 55 55 54 53 53 52 51 49 47 47
55 55 54 54 54 53 53 53 53 54 55 56 58 60 62 64 66 67 67 68 69 70 70 69 69 68 66 65 63 62 61 61 60 60 60 60 59 59 59 59 60 62 63 64 65 65 66 67 67 68 68 69 70 71 72 73 74 74 74 74 74 74 73 73 72 71 70 69 67 66 64 62 61 61 59 58 56 55 55 55 53 53 51 49 49
54 53 53 53 53 53 53 53 54 54 56 57 59 60 62 64 66 66 67 68 70 71 71 69 68 66 64 62 61 60 60 60 61 61 61 61 61 61 62 63 63 64 65 66 67 67 68 68 69 69 70 71 72 73 74 75 75 76 76 76 75 74 74 74 73 73 73 73 72 70 68 66 64 62 61 60 58 58 57 56 55 54 53 52 50
53 53 53 53 52 52 53 54 54 55 56 58 59 61 62 64 66 66 67 67 68 70 70 68 66 63 61 60 59 60 60 61 62 63 63 63 63 64 64 65 66 67 68 69 69 69 68 69 69 70 71 73 74 75 76 76 77 77 77 76 76 76 76 76 75 74 73 73 71 69 68 67 64 62 61 61 60 60 59 58 57 56 56 54 53
53 53 53 52 52 52 53 54 55 56 57 58 59 60 62 63 65 65 66 66 66 67 67 65 62 60 58 57 57 59 61 62 63 63 64 64 64 64 65 67 68 70 70 70 68 68 68 69 70 71 73 74 75 76 77 78 78 77 77 77 78 77 77 75 73 70 68 67 66 64 63 63 61 60 60 60 60 61 61 60 59 58 58 57 55
53 53 53 52 53 54 55 55 56 56 56 56 57 59 60 61 62 63 64 64 64 63 62 59 58 57 56 57 58 60 61 62 63 63 63 63 64 65 67 69 70 70 68 67 67 67 68 69 71 72 74 75 76 77 78 78 79 79 80 79 77 75 72 70 68 65 63 62 61 60 59 59 58 58 58 58 58 59 61 61 59 59 59 58 57
53 53 53 53 54 55 55 55 55 55 54 54 55 56 57 58 59 59 60 58 57 56 55 55 56 57 58 59 60 61 62 63 63 64 64 65 66 68 69 70 69 67 66 66 67 68 69 71 72 74 75 76 77 78 79 80 80 80 78 75 72 69 66 65 63 62 60 58 58 57 57 57 56 55 55 56 57 58 59 59 59 59 59 58 58
52 52 53 54 55 54 54 53 53 52 52 51 50 51 52 54 54 54 53 52 51 52 53 54 56 58 59 60 61 61 62 63 64 65 66 67 68 69 69 68 66 65 66 67 68 69 70 72 74 75 76 77 78 80 81 80 79 75 72 68 65 63 62 60 59 58 57 55 54 54 54 54 53 53 53 55 55 56 56 56 57 58 58 58 58
52 53 53 54 53 52 51 50 50 49 48 47 46 46 47 49 51 51 51 51 52 53 55 56 58 59 59 60 61 62 62 64 65 66 67 68 69 68 67 65 65 66 67 67 69 70 72 73 74 75 77 78 80 80 79 76 74 71 68 65 62 59 57 56 55 54 53 52 50 49 50 50 50 50 52 53 53 53 54 55 56 56 57 58 58
52 52 52 52 51 50 48 47 46 45 44 44 44 45 46 47 50 52 53 54 55 57 58 58 59 59 59 60 61 62 63 65 66 67 68 68 67 66 65 65 66 66 67 69 70 71 73 74 75 77 78 78 77 75 73 71 70 68 66 63 60 57 55 52 51 50 49 48 47 46 45 46 46 47 48 49 50 51 53 55 55 56 56 57 58
50 50 49 49 48 47 46 44 43 42 42 42 44 45 46 47 49 52 54 55 57 57 58 58 58 58 59 60 61 63 64 66 67 67 67 66 65 64 64 65 66 67 68 70 71 72 73 75 76 77 76 74 72 70 69 68 66 64 62 60 57 54 52 49 48 47 46 45 44 43 42 42 42 44 45 46 47 49 50 52 53 55 56 57 58
47 47 46 45 44 43 42 42 41 42 42 43 45 46 47 48 50 51 53 54 55 56 57 57 58 59 60 62 63 64 65 66 66 65 64 63 63 64 65 66 67 68 69 70 71 73 74 75 74 73 71 70 69 67 66 64 63 61 59 56 53 50 48 45 44 43 42 41 41 40 39 38 38 40 42 43 44 45 46 48 50 53 55 57 58
44 44 42 41 40 40 39 39 40 41 43 45 46 48 49 51 52 53 54 55 56 57 58 59 60 61 62 63 64 64 64 63 62 61 61 62 63 65 65 66 67 68 69 71 72 73 72 71 70 69 68 67 66 64 63 61 60 58 56 54 52 49 46 43 41 40 38 38 37 37 36 35 35 36 38 39 40 42 43 44 47 50 52 55 57
42 41 39 38 38 37 37 38 39 40 42 44 46 48 50 51 52 53 54 56 57 58 59 59 60 60 61 60 60 59 59 59 59 61 62 63 64 65 65 66 67 69 70 71 71 70 69 68 67 66 65 64 63 61 59 58 56 55 53 52 51 49 46 44 42 39 37 36 35 34 33 33 33 33 34 35 37 39 40 41 43 45 48 51 54
41 40 38 37 37 36 36 37 38 40 42 43 45 47 49 50 51 52 53 53 54 55 55 55 55 55 55 55 55 56 57 59 60 61 62 63 63 64 66 67 68 69 69 68 67 66 66 65 64 63 62 61 59 58 56 54 53 52 50 49 49 48 47 44 42 40 38 36 34 32 31 31 30 31 31 32 33 35 37 38 39 41 44 46 49
Wind_Direction
247 251 258 265 268 265 261 261 261 260 260 259 260 261 261 261 262 263 264 265 266 266 267 268 269 270 271 272 273 274 276 277 278 279 280 281 283 284 286 288 289 290 291 292 292 292 293 293 294 295 295 295 294 293 294 295 296 297 298 298 298 298 298 298 299 300 301 302 303 305 305 303 302 301 299 295 290 287 285 280 272 261 253 252 251
239 235 237 245 258 262 261 262 262 261 260 260 261 262 262 262 262 263 264 265 266 267 268 269 270 271 272 273 274 274 276 277 278 279 280 282 284 285 286 288 289 290 291 292 292 292 293 293 293 294 294 293 292 292 293 294 295 296 296 296 296 295 296 296 297 298 299 300 301 302 302 302 302 302 300 296 291 287 284 280 275 266 254 249 252
243 239 235 235 244 256 261 262 262 262 261 262 263 263 263 263 263 264 265 265 266 267 268 269 270 270 271 272 273 274 275 276 278 279 280 282 283 285 286 287 288 289 290 291 292 292 292 293 293 293 293 292 291 291 292 293 294 295 295 295 294 294 294 295 295 296 297 298 299 300 300 301 302 302 300 297 293 287 282 276 271 268 261 252 250
240 241 238 237 241 249 256 259 261 263 264 264 263 262 262 262 263 264 264 265 266 267 267 268 269 270 271 272 273 274 275 276 277 278 280 281 283 284 285 286 287 288 289 290 291 291 292 292 292 291 290 290 290 290 291 293 294 294 294 294 294 294 295 295 295 296 297 297 297 298 300 301 303 303 301 299 295 289 283 275 268 265 263 259 253
231 234 234 236 243 249 252 255 259 262 262 262 261 260 260 261 262 263 264 265 265 266 267 268 269 270 271 272 273 274 275 276 277 278 279 281 282 283 284 285 286 287 288 289 290 291 291 291 291 289 288 287 288 289 291 292 293 293 293 293 294 295 296 296 296 295 296 296 295 297 299 302 304 304 302 300 297 292 285 279 271 264 260 259 258
231 234 228 226 240 252 254 255 258 260 259 259 260 260 260 261 261 262 263 264 265 266 267 268 269 270 271 272 273 274 275 276 277 278 279 280 281 282 283 284 286 287 288 289 289 289 289 289 289 287 286 286 287 289 290 291 292 292 292 293 295 296 297 296 296 295 295 294 294 296 299 302 304 304 303 301 297 292 287 282 276 267 260 257 257
232 231 223 220 236 251 254 256 259 261 260 259 260 260 260 261 262 263 264 265 266 267 268 268 269 270 271 272 273 273 274 275 277 278 279 279 280 281 282 283 285 286 287 287 288 288 288 288 288 287 287 287 287 288 289 290 290 291 291 293 295 297 297 296 295 295 294 293 293 296 298 301 303 304 304 302 298 292 286 283 278 271 263 256 254
230 228 225 227 238 244 247 255 260 263 262 261 261 261 262 263 264 265 265 266 267 267 268 268 269 270 270 271 272 273 274 275 276 277 278 278 279 281 282 283 283 284 285 286 286 287 287 288 287 287 287 287 287 288 288 289 290 290 291 293 295 296 296 295 295 294 293 292 293 294 297 299 301 302 302 302 299 294 287 282 278 273 267 258 252
230 230 231 234 238 236 239 254 261 264 265 264 264 266 266 267 266 266 266 266 267 267 268 268 268 269 269 270 271 272 273 274 275 276 277 278 279 280 281 282 282 283 284 285 285 286 287 287 286 286 286 287 287 287 288 289 290 291 292 293 295 295 294 294 293 292 292 292 293 295 296 298 299 300 300 299 297 294 291 286 280 275 268 261 253
232 234 236 236 236 238 243 251 256 260 264 268 271 273 273 272 270 269 267 267 267 267 268 268 268 269 269 269 270 271 272 273 274 275 277 278 279 280 280 281 281 282 283 284 284 285 285 285 284 285 285 286 287 287 288 290 291 292 293 294 294 294 293 292 291 291 291 292 293 295 297 298 299 299 298 297 294 292 292 290 284 278 269 262 255
233 234 238 237 236 240 247 250 252 255 263 272 277 278 278 276 273 272 270 269 268 268 268 268 268 269 269 270 271 272 273 274 275 276 277 277 278 279 279 280 281 282 282 282 282 283 282 282 282 283 284 285 286 287 289 291 293 293 293 293 293 292 290 290 290 290 290 291 293 294 296 297 298 299 298 297 295 292 292 291 286 281 273 263 255
235 235 238 241 240 241 246 250 252 258 267 275 278 279 278 276 273 272 271 271 270 269 269 269 269 269 270 271 272 273 274 275 276 276 277 277 277 278 278 279 280 281 281 281 281 281 281 281 281 281 283 285 286 288 289 291 293 293 293 292 291 290 289 289 289 290 290 291 292 293 294 295 296 297 298 297 296 294 292 292 289 284 277 265 255
237 236 238 244 247 248 250 254 260 265 270 274 275 275 274 272 270 269 269 270 270 270 270 269 269 270 270 271 272 274 275 276 276 277 277 277 278 278 278 279 279 280 280 280 281 281 281 280 280 281 282 284 286 288 290 292 292 292 292 291 291 289 289 289 289 290 291 291 292 292 293 294 294 295 296 296 296 295 294 294 292 288 280 268 257
238 239 239 245 251 255 258 261 266 269 271 272 273 272 271 270 269 268 267 267 267 268 269 269 270 270 271 272 272 273 274 275 276 276 277 277 278 278 279 279 279 280 280 280 281 281 281 281 281 281 283 285 287 289 291 292 292 291 291 291 291 291 290 290 290 291 291 291 291 292 292 292 293 294 294 294 295 296 296 295 294 292 283 271 259
237 240 243 246 252 257 262 265 267 271 275 274 273 272 271 270 269 268 267 266 266 266 267 268 270 270 271 272 272 273 274 274 275 276 277 277 278 278 278 279 279 280 280 281 281 281 282 282 282 283 285 286 288 289 290 291 290 290 290 290 291 291 291 290 290 290 291 291 291 292 292 292 292 293 293 293 295 296 296 295 295 294 288 276 262
238 242 246 252 258 262 265 268 273 280 282 278 277 278 275 272 270 269 268 267 266 266 267 268 270 270 271 272 273 273 274 274 275 276 276 277 278 278 278 279 279 280 281 282 282 282 283 283 284 284 285 286 288 289 289 289 289 288 288 289 290 290 290 289 289 289 290 290 291 292 292 292 292 292 291 292 294 296 296 296 295 295 291 282 265
237 239 245 256 263 267 270 273 277 282 282 281 282 282 280 277 273 269 268 267 266 267 268 269 270 271 272 272 272 273 274 274 275 276 276 277 277 278 278 279 280 281 282 282 283 283 284 284 284 285 286 286 287 288 288 288 288 288 287 287 289 290 289 289 289 289 290 290 291 291 291 291 291 291 291 291 293 295 296 295 295 296 294 287 271
232 235 246 261 268 270 271 272 274 275 276 278 279 280 281 280 276 271 268 267 267 268 268 269 270 271 271 272 272 272 274 274 275 276 276 276 277 277 278 279 280 281 282 282 283 283 284 284 285 285 286 286 286 286 286 287 288 288 288 288 288 289 289 289 289 290 290 290 290 290 290 290 290 290 290 290 292 293 294 295 294 294 293 289 277
225 234 245 257 260 260 261 264 268 269 268 270 271 273 275 276 275 271 268 269 270 269 269 270 271 271 271 271 271 272 273 274 275 275 276 276 277 278 279 280 281 281 281 282 282 283 284 284 284 285 285 285 286 286 285 287 289 289 289 289 288 288 288 288 289 290 291 291 290 290 290 289 289 289 289 290 290 291 292 293 293 293 292 289 281
213 225 229 238 250 254 256 260 263 264 263 263 265 268 269 270 270 269 269 271 273 271 271 272 272 273 272 271 271 272 273 274 275 276 277 278 279 279 280 280 280 280 280 281 282 283 283 283 283 284 284 285 286 285 285 287 289 289 289 289 288 288 288 288 289 290 291 291 291 290 289 289 288 288 288 288 289 290 290 291 292 292 291 290 284
206 213 216 229 243 248 254 259 260 261 260 258 259 264 268 269 268 269 270 273 275 274 273 274 274 274 274 273 273 273 274 275 275 276 277 277 278 278 278 278 278 279 279 280 282 282 283 283 283 283 284 285 286 285 285 287 288 288 288 288 288 287 287 287 289 290 291 292 291 291 290 289 288 287 287 287 288 289 289 290 290 290 290 290 286
211 215 214 221 236 243 252 259 261 263 262 257 257 263 269 270 268 269 271 274 277 277 276 276 277 276 275 275 275 275 275 276 276 276 277 277 277 277 277 277 278 278 279 280 281 282 282 283 284 284 284 285 285 285 286 287 288 288 287 287 287 286 287 287 288 289 290 291 291 290 289 288 288 287 286 286 287 288 289 289 289 290 290 290 288
216 221 217 217 232 241 246 250 254 257 259 260 262 267 270 268 265 267 269 272 278 280 279 280 282 280 278 277 277 277 277 277 277 277 277 277 278 277 277 278 278 279 280 280 281 281 281 282 282 283 283 283 284 284 285 286 287 287 287 286 286 286 286 287 287 288 289 289 289 288 287 287 287 286 285 285 286 286 287 287 288 289 289 290 290
216 222 217 214 224 231 234 239 245 251 257 262 264 266 267 265 263 264 267 272 277 280 280 282 284 283 282 281 281 280 280 279 278 278 278 278 278 278 278 278 279 279 280 280 280 280 280 280 280 281 281 282 283 284 285 285 286 286 285 286 286 286 287 287 287 287 288 288 287 286 286 285 285 285 285 285 284 284 284 285 286 288 289 289 290
214 219 220 219 223 230 234 238 243 249 256 261 263 263 263 263 263 264 267 272 274 277 279 281 282 284 284 284 285 284 283 282 280 279 279 278 278 278 278 278 279 279 280 280 280 280 280 280 280 281 281 282 283 283 284 284 285 285 285 285 286 287 288 288 287 287 287 286 286 285 285 285 284 284 284 284 283 281 281 282 283 285 287 288 289
215 218 224 226 227 233 239 244 248 253 258 261 264 265 264 264 263 263 267 270 272 273 276 279 281 283 283 285 287 287 287 286 283 280 279 278 278 278 278 279 279 279 279 280 280 280 280 281 281 281 281 282 283 283 284 285 285 286 286 286 287 287 288 288 288 287 287 286 285 284 284 285 284 283 282 282 282 280 279 280 280 282 284 285 287
219 220 227 230 232 236 240 246 252 255 259 262 264 263 262 262 262 263 265 269 271 272 275 278 281 282 282 285 287 288 288 287 284 282 280 279 279 279 279 279 279 279 280 280 280 280 280 281 281 281 282 282 283 283 284 285 286 287 287 288 288 288 288 289 289 288 288 286 285 284 283 283 283 282 280 280 280 279 278 277 278 278 280 282 284
226 225 228 231 235 240 241 245 250 251 255 258 258 258 258 258 260 262 265 267 270 272 274 276 278 280 281 284 286 287 287 285 283 281 281 281 281 281 281 280 280 280 280 281 281 280 281 281 281 281 282 282 283 284 285 286 287 287 288 288 288 288 289 290 290 290 289 287 286 284 283 282 282 281 279 277 277 277 276 276 275 275 276 278 280
232 232 232 230 233 237 238 241 246 247 246 247 250 253 256 256 258 262 265 268 271 272 274 275 277 278 281 283 285 285 285 283 282 281 281 281 281 282 282 282 281 281 281 282 282 281 281 281 281 282 282 283 284 285 286 287 288 288 288 287 287 288 289 291 291 290 289 288 287 286 284 282 281 280 278 276 275 274 274 273 273 272 271 273 275
237 237 236 233 232 234 234 237 242 244 243 244 247 253 258 260 261 263 266 269 272 273 274 275 276 278 280 281 282 282 282 282 282 282 282 282 282 283 282 282 282 282 282 283 282 281 281 281 282 282 283 284 284 285 286 287 287 288 288 288 288 289 290 291 291 290 289 288 288 287 285 283 281 279 277 275 273 272 271 270 270 268 268 268 270
240 241 241 238 236 235 235 236 240 243 246 248 250 254 259 263 264 265 266 269 272 273 274 275 276 277 278 279 280 281 282 282 282 283 283 283 284 283 283 283 284 283 283 282 281 281 281 282 282 283 284 284 285 286 287 287 287 287 288 289 289 290 291 291 291 290 289 288 287 286 285 283 281 279 277 275 272 270 269 267 266 265 264 264 265
243 244 243 240 238 238 238 238 240 244 248 251 253 255 260 263 265 266 268 269 271 272 273 274 275 276 277 278 279 281 281 282 282 283 284 284 284 284 284 285 284 283 282 281 281 281 282 283 283 283 284 285 286 286 287 287 287 288 288 289 290 290 291 291 290 290 289 288 287 286 284 282 281 279 276 274 271 269 267 265 264 262 260 260 260
243 243 240 237 237 240 241 241 242 245 249 253 256 258 260 263 265 266 267 268 270 270 271 272 273 274 275 277 279 280 280 281 282 282 283 283 283 284 284 284 283 282 282 282 282 283 283 284 284 284 285 285 286 287 287 287 287 288 288 289 289 290 291 291 290 290 289 288 287 285 283 281 280 278 276 273 270 268 265 263 262 260 257 255 256
240 239 238 237 238 241 243 245 245 247 250 254 256 257 259 261 262 264 266 267 268 269 270 271 272 273 275 277 278 279 279 280 280 280 281 281 282 282 282 282 282 282 282 283 284 284 285 285 285 285 286 286 286 287 287 287 288 288 289 289 290 290 290 290 290 289 288 287 286 284 282 280 278 277 275 272 269 267 265 262 260 258 256 253 252
238 236 236 237 238 240 243 246 248 250 252 255 257 259 260 261 263 264 266 267 268 270 270 271 273 274 276 277 278 278 278 278 278 278 279 280 281 282 282 282 283 283 283 284 285 285 286 286 286 286 286 287 287 287 288 288 289 290 290 290 290 290 290 290 289 288 287 286 285 283 282 280 278 276 274 271 268 266 264 262 259 257 254 251 249
235 234 234 236 239 242 244 246 249 251 253 256 258 261 262 263 265 266 267 268 269 270 271 272 273 274 275 276 276 276 276 276 276 276 278 279 281 282 283 283 284 284 285 286 286 286 287 287 287 287 287 287 288 289 289 290 291 291 291 291 291 291 291 290 289 288 287 286 284 283 281 280 278 276 274 271 269 266 263 261 259 256 253 249 247
233 233 234 237 241 244 246 248 251 253 255 257 259 261 263 264 265 266 267 269 269 270 271 271 272 273 273 274 274 274 275 275 275 276 277 279 281 283 284 284 285 286 286 287 288 288 288 288 288 288 289 289 290 290 291 291 291 291 291 291 291 291 290 290 290 289 288 286 285 283 281 280 278 276 273 270 268 265 262 259 257 255 252 249 245
233 234 236 239 242 245 248 251 253 255 258 260 261 262 263 265 266 267 268 269 269 269 269 270 271 271 272 272 273 273 273 274 274 275 277 279 281 283 284 285 286 287 288 289 289 289 290 290 290 290 290 290 291 291 292 292 292 292 291 291 291 291 291 291 290 290 289 287 286 284 281 279 277 274 271 268 266 264 262 259 257 254 252 249 245
235 237 239 241 244 247 250 253 256 258 260 261 262 263 265 266 267 267 268 268 268 268 268 269 270 270 271 271 271 271 272 272 274 275 277 279 281 283 284 286 287 289 289 290 291 291 290 290 290 290 290 291 291 292 292 292 292 292 292 292 292 292 291 291 290 289 288 287 285 284 281 278 275 272 270 267 265 262 260 258 256 254 252 249 245
238 240 242 245 247 250 253 257 259 261 261 262 262 263 264 266 267 267 267 267 268 268 269 270 270 271 270 270 270 270 271 272 274 276 278 280 282 284 286 288 289 290 291 292 291 291 290 290 290 291 291 292 292 292 292 292 292 292 293 293 293 293 292 291 290 288 287 285 283 282 279 277 274 271 268 265 262 260 258 256 254 253 251 249 246
240 243 246 249 253 255 258 260 262 262 263 263 263 263 264 264 265 266 266 266 267 268 270 272 272 272 270 270 270 271 272 274 276 278 281 282 284 286 288 290 291 292 292 292 291 291 291 291 292 292 293 293 293 293 293 293 293 294 294 294 294 294 293 292 290 288 286 284 282 280 277 275 273 269 266 262 260 258 256 254 252 251 250 248 246
243 246 250 253 257 259 261 263 263 263 263 263 263 263 263 263 264 265 265 266 267 269 271 272 272 272 272 272 273 274 275 277 280 282 284 286 287 289 290 291 292 292 292 291 291 291 292 292 293 293 293 293 293 293 294 295 296 296 296 296 296 295 294 292 290 289 286 284 282 279 276 274 271 268 266 263 260 257 255 253 251 249 248 247 246
247 250 254 257 260 262 263 264 264 263 263 262 262 262 262 263 263 264 266 267 268 269 270 271 271 272 273 274 276 277 279 281 283 285 286 288 289 290 291 292 292 291 291 291 292 292 293 293 293 293 294 294 295 296 296 297 297 297 297 297 296 295 294 293 291 289 287 284 282 279 277 274 271 269 266 263 260 257 254 253 251 248 247 246 245
252 255 258 260 262 263 264 264 263 263 263 262 260 260 261 263 264 264 265 267 268 268 269 270 271 272 274 276 279 280 282 283 284 286 287 288 289 290 291 291 291 291 291 292 292 293 293 293 294 294 295 296 297 298 298 299 299 298 298 298 297 296 295 294 292 290 288 285 282 279 277 274 272 269 265 261 259 258 255 253 251 248 246 245 244
256 259 261 262 263 264 263 263 263 262 261 259 257 256 257 260 262 263 264 265 266 267 268 270 272 274 277 278 280 281 282 283 284 285 287 288 290 290 290 290 290 291 291 292 292 293 293 294 295 296 297 298 299 300 300 301 301 301 301 300 299 298 297 295 293 291 289 287 284 280 277 274 271 268 265 262 259 257 255 252 250 247 246 244 243
259 261 262 263 263 263 263 262 260 259 258 257 256 254 254 255 257 259 261 263 265 267 269 271 274 276 277 278 279 280 281 282 283 285 287 288 289 289 289 289 290 291 292 292 293 294 295 296 297 298 299 300 301 301 302 302 303 303 303 303 302 302 300 298 296 294 291 289 286 282 279 275 272 269 265 262 259 255 253 251 249 247 245 243 242
260 261 262 263 263 263 262 260 258 257 257 257 257 256 256 256 256 258 260 262 264 267 269 272 273 275 276 277 278 279 280 281 283 285 286 287 288 288 289 290 291 291 292 293 294 295 296 297 299 300 300 301 302 302 303 303 303 303 303 303 303 303 302 300 299 296 294 291 288 285 281 277 273 270 266 263 260 257 254 252 250 247 245 243 241
260 261 262 262 261 260 259 259 258 258 258 258 258 258 258 257 258 259 260 262 264 266 268 270 272 273 274 275 277 278 280 282 283 285 286 287 288 288 289 290 291 292 293 294 295 297 298 299 300 301 302 302 303 303 304 304 304 304 304 304 304 304 304 303 301 299 297 294 291 288 284 280 274 271 268 265 262 259 255 252 249 247 245 243 241
260 259 258 257 257 257 258 259 260 260 259 259 259 259 259 259 259 260 261 263 264 266 268 269 271 272 274 275 277 279 280 282 283 285 286 287 288 289 290 290 292 293 294 296 297 298 299 300 301 302 303 303 304 304 304 305 305 306 307 308 308 309 309 308 307 304 301 298 295 292 288 283 278 273 269 266 264 261 257 253 250 248 246 244 242
255 254 253 254 255 257 260 261 261 261 260 259 259 259 259 259 260 261 262 263 265 267 268 270 271 273 274 276 278 279 281 282 284 285 286 287 288 289 290 291 293 294 296 297 298 299 300 301 302 303 303 304 304 304 305 306 307 308 309 311 312 313 313 313 312 310 306 303 299 296 292 287 282 276 272 268 265 262 260 257 253 249 247 245 243
250 249 251 253 255 258 261 263 263 262 260 260 259 260 260 260 261 262 264 265 266 268 269 271 272 274 276 277 279 280 282 283 284 285 286 287 288 290 291 293 294 296 297 298 299 300 301 302 303 303 303 304 304 304 305 307 308 310 311 313 314 314 315 315 315 313 311 307 303 300 295 291 286 280 275 270 266 264 261 259 256 252 249 247 244